Simultaneous Nadir Overpasses (SNOs) Predictions

Prediction of SNOs between METOP-B and TERRA Satellite Orbit:

Table of predicted SNOs for the next 14.0 days since TLE Epoch: 2/3/2017
Index Date (METOP-B) Time (METOP-B) Lat,Lon (METOP-B) SZA (METOP-B ) Date (TERRA) Time (TERRA) Lat,Lon (TERRA) SZA (TERRA ) Distance(km) Time Diff (sec)
1 02/06/2017 01:30:40 81.29,-156.19 99.12 02/06/2017 01:31:43 81.29,-156.03 99.16 2.67 63
2 02/06/2017 02:21:19 -81.30, 11.83 80.82 02/06/2017 02:21:09 -81.31, 11.89 80.81 1.27 10
3 02/08/2017 21:05:02 81.30, -89.42 98.28 02/08/2017 21:05:57 81.31, -89.39 98.31 0.98 55
4 02/08/2017 21:55:42 -81.30, 78.21 81.70 02/08/2017 21:55:24 -81.30, 78.18 81.72 0.49 18
5 02/11/2017 16:39:25 81.30, -23.05 97.36 02/11/2017 16:40:12 81.29, -23.21 97.36 2.80 47
6 02/1
